FW2710 Weather Reports


Display with metric or nautical units.
time (UTC)temp
F
wind
direction
speed
MPH
gust
MPH
rain 1hr
in
rain 24hr
in
rain mn
in
humidity
%
barometer
mb
20260507021025 46 0 0.0 0.0 0.00 0.00 0.00 60 1017.0
20260507020525 46 0 0.0 0.0 0.00 0.00 0.00 59 1016.8
20260507020037 46 0 0.0 0.0 0.00 0.00 0.00 58 1016.8
20260507015528 46 0 0.0 0.0 0.00 0.00 0.00 58 1016.6
20260507015025 47 0 0.0 0.0 0.00 0.00 0.00 58 1016.6
20260507014552 47 0 0.0 0.0 0.00 0.00 0.00 57 1016.5
20260507014025 47 0 0.0 0.0 0.00 0.00 0.00 56 1016.4
20260507013524 47 0 0.0 0.0 0.00 0.00 0.00 57 1016.4
20260507013040 47 0 0.0 0.0 0.00 0.00 0.00 57 1016.3
20260507012526 48 0 0.0 0.0 0.00 0.00 0.00 57 1016.3
20260507012025 48 0 0.0 0.0 0.00 0.00 0.00 55 1016.3
20260507011541 49 0 0.0 1.0 0.00 0.00 0.00 54 1016.2
20260507011025 49 0 0.0 1.0 0.00 0.00 0.00 51 1016.1
20260507010525 49 0 0.0 1.0 0.00 0.00 0.00 52 1016.0
20260507010036 50 0 0.0 0.0 0.00 0.00 0.00 53 1015.9
20260507005527 50 0 0.0 0.0 0.00 0.00 0.00 52 1015.9
20260507005028 51 0 0.0 0.0 0.00 0.00 0.00 51 1015.9
20260507004540 51 0 0.0 0.0 0.00 0.00 0.00 51 1015.9
20260507004026 51 0 0.0 0.0 0.00 0.00 0.00 49 1015.8
20260507003524 52 0 0.0 0.0 0.00 0.00 0.00 48 1015.9
20260507003036 52 0 0.0 0.0 0.00 0.00 0.00 51 1015.9
20260507002525 52 0 0.0 0.0 0.00 0.00 0.00 49 1015.9
20260507002026 52 0 0.0 0.0 0.00 0.00 0.00 48 1015.8
20260507001549 53 0 0.0 0.0 0.00 0.00 0.00 48 1015.8
20260507001024 53 0 0.0 0.0 0.00 0.00 0.00 48 1015.8
20260507000528 53 0 0.0 0.0 0.00 0.00 0.00 49 1015.7
20260507000040 53 0 0.0 6.0 0.00 0.00 0.00 46 1015.8
20260506235526 54 0 0.0 6.0 0.00 0.00 0.00 47 1015.8
20260506235025 54 287 0.0 6.0 0.00 0.00 0.00 45 1015.9
20260506234543 54 0 0.0 8.0 0.00 0.00 0.00 46 1015.7
20260506234025 55 0 0.0 8.0 0.00 0.00 0.00 45 1015.7
20260506233525 55 0 0.0 6.0 0.00 0.00 0.00 44 1015.8
20260506233039 55 0 0.0 7.0 0.00 0.00 0.00 44 1015.8
20260506232525 55 287 0.0 7.0 0.00 0.00 0.00 45 1015.8
20260506232025 55 0 0.0 7.0 0.00 0.00 0.00 44 1015.9
20260506231540 55 0 1.0 6.0 0.00 0.00 0.00 42 1015.8
20260506231024 55 0 0.0 4.0 0.00 0.00 0.00 46 1015.6
20260506230525 55 0 0.0 3.0 0.00 0.00 0.00 44 1015.7
20260506230039 54 0 0.0 2.0 0.00 0.00 0.00 44 1015.7
20260506225525 55 0 0.0 3.0 0.00 0.00 0.00 43 1015.7
20260506225025 55 0 0.0 3.0 0.00 0.00 0.00 42 1015.9
20260506224537 55 0 0.0 3.0 0.00 0.00 0.00 42 1015.6
20260506224025 55 0 0.0 7.0 0.00 0.00 0.00 43 1015.6
20260506223526 56 0 0.0 7.0 0.00 0.00 0.00 41 1015.5
20260506223045 56 0 0.0 9.0 0.00 0.00 0.00 43 1015.4
20260506222525 57 0 0.0 9.0 0.00 0.00 0.00 42 1015.3
20260506222026 57 287 0.0 3.0 0.00 0.00 0.00 40 1015.3
20260506221535 58 0 0.0 3.0 0.00 0.00 0.00 40 1015.1
20260506221026 58 0 0.0 3.0 0.00 0.00 0.00 42 1015.1
20260506220525 58 287 0.0 3.0 0.00 0.00 0.00 42 1015.3
20260506220053 58 0 0.0 10.0 0.00 0.00 0.00 39 1015.2
20260506215524 59 0 1.0 10.0 0.00 0.00 0.00 41 1015.1
20260506215025 58 287 0.0 6.0 0.00 0.00 0.00 44 1015.3
20260506214539 58 0 0.0 10.0 0.00 0.00 0.00 42 1015.4
20260506214024 58 287 1.0 12.0 0.00 0.00 0.00 44 1015.3
20260506213528 58 0 2.0 12.0 0.00 0.00 0.00 43 1015.4
20260506213035 59 287 4.0 12.0 0.00 0.00 0.00 42 1015.4
20260506212529 59 287 1.0 9.0 0.00 0.00 0.00 42 1015.3
20260506212025 58 0 0.0 9.0 0.00 0.00 0.00 40 1015.4
20260506211537 57 0 0.0 10.0 0.00 0.00 0.00 42 1015.5
20260506211025 57 287 2.0 10.0 0.00 0.00 0.00 45 1015.3
20260506210527 57 0 0.0 10.0 0.00 0.00 0.00 42 1015.4
20260506210042 57 0 0.0 10.0 0.00 0.00 0.00 42 1015.5
20260506205525 58 287 2.0 10.0 0.00 0.01 0.00 41 1015.4
20260506205028 57 287 0.0 8.0 0.00 0.01 0.00 49 1015.5
20260506204541 57 0 0.0 7.0 0.00 0.01 0.00 42 1015.4
20260506204027 57 0 0.0 8.0 0.00 0.01 0.00 43 1015.5
20260506203525 57 0 1.0 6.0 0.00 0.01 0.00 46 1015.5
20260506203113 57 0 0.0 8.0 0.00 0.01 0.00 42 1015.6
20260506202527 57 0 0.0 9.0 0.00 0.01 0.00 42 1015.7
20260506202025 58 287 2.0 9.0 0.00 0.01 0.00 44 1015.7
20260506201540 58 287 0.0 6.0 0.00 0.01 0.00 46 1015.7
20260506201024 59 0 0.0 4.0 0.00 0.01 0.00 41 1015.8
20260506200524 58 0 0.0 8.0 0.00 0.01 0.00 47 1015.8
20260506200046 58 0 0.0 8.0 0.00 0.01 0.00 42 1015.7
20260506195525 58 0 0.0 7.0 0.00 0.02 0.00 41 1015.6
20260506195025 58 0 1.0 12.0 0.00 0.02 0.00 49 1015.6
20260506194537 57 0 0.0 12.0 0.00 0.02 0.00 46 1015.6
20260506194025 57 287 1.0 11.0 0.00 0.02 0.00 46 1015.7
20260506193524 58 287 0.0 11.0 0.00 0.02 0.00 46 1015.8
20260506193039 57 287 2.0 9.0 0.00 0.02 0.00 52 1015.9
20260506192524 57 0 0.0 8.0 0.00 0.02 0.00 44 1015.9
20260506192025 57 287 0.0 4.0 0.00 0.02 0.00 46 1016.0
20260506191539 57 0 0.0 7.0 0.00 0.02 0.00 49 1015.9
20260506191025 56 0 0.0 7.0 0.00 0.02 0.00 50 1016.0
20260506190524 56 0 0.0 7.0 0.00 0.02 0.00 49 1016.0
20260506190046 56 0 0.0 3.0 0.00 0.02 0.00 46 1015.8
20260506185525 56 0 0.0 3.0 0.00 0.02 0.00 47 1016.0
20260506185025 57 0 0.0 8.0 0.00 0.02 0.00 45 1016.0
20260506184553 58 0 0.0 8.0 0.00 0.02 0.00 48 1015.8
20260506184027 57 0 0.0 7.0 0.00 0.02 0.00 47 1015.8
20260506183525 56 0 0.0 7.0 0.00 0.02 0.00 47 1015.8
20260506183037 56 0 0.0 0.0 0.00 0.02 0.00 47 1015.7
20260506182524 57 0 0.0 7.0 0.00 0.02 0.00 43 1015.7
20260506182028 58 0 0.0 7.0 0.00 0.02 0.00 41 1015.8
20260506181539 56 0 0.0 6.0 0.00 0.02 0.00 48 1015.7
20260506181023 57 0 0.0 4.0 0.00 0.02 0.00 47 1015.7
20260506180523 57 0 0.0 4.0 0.00 0.02 0.00 47 1015.9
20260506180038 58 0 0.0 6.0 0.00 0.02 0.00 46 1016.0
20260506175523 58 0 0.0 8.0 0.00 0.02 0.00 46 1015.9
20260506175026 58 0 0.0 8.0 0.00 0.02 0.00 46 1015.9
20260506174535 58 0 0.0 7.0 0.00 0.02 0.00 46 1016.0
20260506174026 58 287 0.0 7.0 0.00 0.02 0.00 52 1016.0
20260506173522 57 0 0.0 7.0 0.00 0.02 0.00 47 1016.0
20260506173052 57 0 0.0 4.0 0.00 0.02 0.00 50 1016.0
20260506172522 57 0 0.0 4.0 0.00 0.02 0.00 52 1016.1
20260506172025 57 0 0.0 4.0 0.00 0.02 0.00 54 1016.2
20260506171540 56 0 0.0 0.0 0.00 0.02 0.00 52 1016.2
20260506171025 55 0 0.0 0.0 0.00 0.02 0.00 47 1016.4
20260506170528 55 0 0.0 0.0 0.00 0.02 0.00 52 1016.5
20260506170040 55 0 0.0 3.0 0.00 0.02 0.00 49 1016.3
20260506165523 54 0 0.0 3.0 0.00 0.02 0.00 52 1016.5
20260506165025 54 0 0.0 3.0 0.00 0.02 0.00 51 1016.4
20260506164545 53 0 0.0 2.0 0.00 0.02 0.00 52 1016.3
20260506164022 53 0 0.0 0.0 0.00 0.02 0.00 52 1016.3
20260506163522 53 0 0.0 0.0 0.00 0.02 0.00 52 1016.3
20260506163055 53 0 0.0 0.0 0.00 0.02 0.00 51 1016.3
20260506162523 52 0 0.0 0.0 0.00 0.02 0.00 53 1016.1
20260506162023 52 0 0.0 0.0 0.00 0.02 0.00 53 1016.0
20260506161537 52 0 0.0 0.0 0.00 0.02 0.00 56 1016.0
20260506161022 52 0 0.0 0.0 0.00 0.02 0.00 58 1016.0
20260506160525 52 0 0.0 0.0 0.00 0.02 0.00 58 1016.0
20260506160043 51 0 0.0 0.0 0.00 0.02 0.00 60 1015.9
20260506155525 51 0 0.0 0.0 0.00 0.02 0.00 62 1015.8
20260506155025 51 0 0.0 0.0 0.00 0.02 0.00 62 1015.8
20260506154547 51 0 0.0 0.0 0.00 0.02 0.00 62 1015.8
20260506154025 50 0 0.0 0.0 0.00 0.02 0.00 64 1015.7
20260506153524 50 0 0.0 0.0 0.00 0.02 0.00 65 1015.5
20260506153038 49 0 0.0 0.0 0.00 0.02 0.00 63 1015.5
20260506152522 49 0 0.0 0.0 0.00 0.02 0.00 67 1015.4
20260506152023 49 0 0.0 0.0 0.00 0.02 0.00 66 1015.3
20260506151540 49 0 0.0 0.0 0.00 0.02 0.00 67 1015.4
20260506151022 49 0 0.0 0.0 0.00 0.02 0.00 67 1015.3
20260506150522 48 0 0.0 0.0 0.00 0.02 0.00 69 1015.4
20260506150039 48 0 0.0 0.0 0.00 0.02 0.00 69 1015.3
20260506145522 48 0 0.0 0.0 0.00 0.02 0.00 69 1015.3
20260506145023 48 0 0.0 0.0 0.00 0.02 0.00 70 1015.1
20260506144545 48 0 0.0 0.0 0.00 0.02 0.00 72 1015.0
20260506144025 48 0 0.0 0.0 0.00 0.02 0.00 70 1014.9
20260506143525 47 0 0.0 0.0 0.00 0.02 0.00 74 1014.9
20260506143039 47 0 0.0 0.0 0.00 0.02 0.00 75 1015.1
20260506142524 47 0 0.0 0.0 0.00 0.02 0.00 74 1015.1
20260506142027 47 0 0.0 0.0 0.00 0.02 0.00 75 1015.2
20260506141541 47 0 0.0 0.0 0.00 0.02 0.00 76 1015.1
20260506141026 46 0 0.0 0.0 0.00 0.02 0.00 75 1015.1
20260506140526 46 0 0.0 0.0 0.00 0.02 0.00 75 1015.3
20260506140039 46 0 0.0 0.0 0.00 0.02 0.00 75 1015.4
20260506135526 46 0 0.0 0.0 0.00 0.02 0.00 75 1015.4
20260506135029 45 0 0.0 0.0 0.00 0.02 0.00 76 1015.3
20260506134539 45 0 0.0 0.0 0.00 0.02 0.00 75 1015.2
20260506134022 45 0 0.0 0.0 0.00 0.02 0.00 76 1015.2
20260506133524 45 0 0.0 0.0 0.00 0.02 0.00 77 1015.2
20260506133044 44 0 0.0 0.0 0.00 0.02 0.00 77 1015.4
20260506132525 44 0 0.0 0.0 0.00 0.02 0.00 78 1015.5
20260506132026 44 0 0.0 0.0 0.00 0.02 0.00 79 1015.4
20260506131545 44 0 0.0 0.0 0.00 0.02 0.00 80 1015.3
20260506131025 44 0 0.0 0.0 0.00 0.02 0.00 80 1015.4
20260506130525 43 0 0.0 0.0 0.00 0.02 0.00 81 1015.1
20260506130047 43 0 0.0 0.0 0.00 0.02 0.00 81 1015.0
20260506125522 43 0 0.0 0.0 0.00 0.02 0.00 81 1014.9
20260506125024 43 0 0.0 0.0 0.00 0.02 0.00 80 1014.7
20260506124538 43 0 0.0 0.0 0.00 0.02 0.00 80 1014.6
20260506124022 43 0 0.0 0.0 0.00 0.02 0.00 81 1014.5
20260506123522 43 0 0.0 0.0 0.00 0.02 0.00 81 1014.5
20260506123036 43 0 0.0 0.0 0.00 0.02 0.00 82 1014.3
20260506122527 43 0 0.0 0.0 0.00 0.02 0.00 81 1014.2
20260506122025 42 0 0.0 0.0 0.00 0.02 0.00 81 1014.0
20260506121550 42 0 0.0 0.0 0.00 0.02 0.00 83 1014.0
20260506121026 42 0 0.0 0.0 0.00 0.02 0.00 84 1013.9
20260506120525 41 0 0.0 0.0 0.00 0.02 0.00 85 1014.0
20260506120041 41 0 0.0 0.0 0.00 0.02 0.00 86 1013.8
20260506115525 40 0 0.0 0.0 0.00 0.02 0.00 87 1013.7
20260506115025 40 0 0.0 0.0 0.00 0.02 0.00 87 1013.6
20260506114541 40 0 0.0 0.0 0.00 0.02 0.00 87 1013.3
20260506114028 40 0 0.0 0.0 0.00 0.02 0.00 87 1013.3
20260506113527 40 0 0.0 0.0 0.00 0.02 0.00 87 1013.1
20260506113039 39 0 0.0 0.0 0.00 0.02 0.00 87 1012.9
20260506112528 39 0 0.0 0.0 0.00 0.02 0.00 86 1012.8
20260506112025 39 0 0.0 0.0 0.00 0.02 0.00 86 1012.9
20260506111538 39 0 0.0 0.0 0.00 0.02 0.00 85 1012.9
20260506111022 39 0 0.0 0.0 0.00 0.02 0.00 85 1012.8
20260506110526 39 0 0.0 0.0 0.00 0.02 0.00 84 1012.8
20260506110043 40 0 0.0 0.0 0.00 0.02 0.00 84 1012.8
20260506105525 40 0 0.0 0.0 0.00 0.02 0.00 84 1012.6
20260506105022 40 0 0.0 0.0 0.00 0.02 0.00 84 1012.4
20260506104539 40 0 0.0 0.0 0.00 0.02 0.00 84 1012.5
20260506104023 40 0 0.0 0.0 0.00 0.02 0.00 84 1012.3
20260506103526 40 0 0.0 0.0 0.00 0.02 0.00 83 1012.3
20260506103040 40 0 0.0 0.0 0.00 0.02 0.00 83 1012.2
20260506102526 40 0 0.0 0.0 0.00 0.02 0.00 83 1012.3
20260506102025 41 0 0.0 0.0 0.00 0.02 0.00 83 1012.4
20260506101537 41 0 0.0 0.0 0.00 0.02 0.00 83 1012.5
20260506101025 41 0 0.0 0.0 0.00 0.02 0.00 83 1012.5
20260506100525 41 0 0.0 0.0 0.00 0.02 0.00 83 1012.5
20260506100039 41 0 0.0 0.0 0.00 0.02 0.00 84 1012.5
20260506095522 40 0 0.0 0.0 0.00 0.02 0.00 84 1012.3
20260506095025 40 0 0.0 0.0 0.00 0.02 0.00 84 1012.2
20260506094543 40 0 0.0 0.0 0.00 0.02 0.00 84 1012.2
20260506094025 40 0 0.0 0.0 0.00 0.02 0.00 84 1011.9
20260506093525 41 0 0.0 0.0 0.00 0.02 0.00 83 1011.8
20260506093042 41 0 0.0 0.0 0.00 0.02 0.00 83 1011.9
20260506092522 41 0 0.0 0.0 0.00 0.02 0.00 82 1011.8
20260506092025 41 0 0.0 0.0 0.00 0.02 0.00 82 1011.5
20260506091539 42 0 0.0 0.0 0.00 0.02 0.00 82 1011.6
20260506091025 42 0 0.0 0.0 0.00 0.02 0.00 82 1011.8
20260506090522 42 0 0.0 0.0 0.00 0.02 0.00 82 1011.9
20260506090039 42 0 0.0 0.0 0.00 0.02 0.00 83 1011.9
20260506085524 42 0 0.0 0.0 0.00 0.02 0.00 83 1012.1
20260506085024 42 0 0.0 0.0 0.00 0.02 0.00 83 1012.1
20260506084544 42 0 0.0 0.0 0.00 0.02 0.00 83 1012.1
20260506084022 42 0 0.0 0.0 0.00 0.02 0.00 83 1012.2
20260506083525 42 0 0.0 0.0 0.00 0.02 0.00 82 1012.1
20260506083035 42 0 0.0 0.0 0.00 0.02 0.00 82 1012.0
20260506082525 43 0 0.0 0.0 0.00 0.02 0.00 82 1011.9
20260506082022 43 0 0.0 0.0 0.00 0.02 0.00 82 1011.9
20260506081542 43 0 0.0 0.0 0.00 0.02 0.00 82 1011.8
20260506081022 43 0 0.0 0.0 0.00 0.02 0.00 82 1011.7
20260506080525 43 0 0.0 0.0 0.00 0.02 0.00 82 1011.6
20260506073529 43 0 0.0 0.0 0.00 0.03 0.00 83 1011.5
20260506073038 43 0 0.0 0.0 0.00 0.03 0.00 83 1011.5
20260506072526 44 0 0.0 0.0 0.00 0.03 0.00 83 1011.6
20260506072027 44 0 0.0 0.0 0.00 0.03 0.00 84 1011.5
20260506071544 44 0 0.0 0.0 0.00 0.03 0.00 84 1011.5
20260506071026 44 0 0.0 0.0 0.00 0.03 0.00 84 1011.6
20260506070528 44 0 0.0 0.0 0.00 0.03 0.00 84 1011.6
20260506062027 45 0 0.0 0.0 0.00 0.03 0.00 85 1011.2
20260506061542 45 0 0.0 0.0 0.00 0.03 0.00 85 1011.4
20260506061031 45 0 0.0 0.0 0.00 0.03 0.00 85 1011.4
20260506060527 45 0 0.0 0.0 0.00 0.03 0.00 84 1011.2
20260506051026 47 0 0.0 0.0 0.00 0.03 0.00 84 1011.5
20260506050526 47 0 0.0 0.0 0.00 0.03 0.00 84 1011.4
20260506045027 47 0 0.0 0.0 0.00 0.03 0.03 84 1011.4
20260506044543 47 0 0.0 0.0 0.00 0.03 0.03 84 1011.3
20260506044027 48 0 0.0 0.0 0.00 0.03 0.03 84 1011.2
20260506043525 48 0 0.0 0.0 0.00 0.03 0.03 84 1011.3
20260506043039 48 0 0.0 0.0 0.00 0.03 0.03 85 1011.2
20260506042527 48 0 0.0 0.0 0.00 0.03 0.03 85 1011.2
20260506042029 48 0 0.0 0.0 0.00 0.03 0.03 85 1011.2
20260506041555 48 0 0.0 0.0 0.00 0.03 0.03 85 1011.1
20260506041025 48 0 0.0 0.0 0.00 0.03 0.03 85 1011.2
20260506040525 48 0 0.0 0.0 0.00 0.03 0.03 84 1011.2
20260506040039 48 0 0.0 0.0 0.00 0.03 0.03 83 1011.2
20260506035526 48 0 0.0 0.0 0.00 0.16 0.03 84 1011.6
20260506035027 48 0 0.0 0.0 0.00 0.16 0.03 84 1011.4
20260506034549 48 0 0.0 0.0 0.00 0.16 0.03 84 1011.5
20260506034030 48 0 0.0 0.0 0.00 0.16 0.03 84 1011.3
20260506033529 49 0 0.0 0.0 0.00 0.16 0.03 84 1011.4
20260506033043 48 0 0.0 0.0 0.00 0.16 0.03 82 1011.2
20260506032526 48 0 0.0 0.0 0.00 0.16 0.03 80 1011.6
20260506032027 49 0 0.0 0.0 0.00 0.16 0.03 82 1011.3
20260506031539 49 0 0.0 0.0 0.00 0.16 0.03 82 1011.6
20260506031026 49 0 0.0 0.0 0.00 0.16 0.03 82 1011.6
20260506030528 49 0 0.0 0.0 0.00 0.16 0.03 83 1011.7
20260506030039 49 0 0.0 0.0 0.00 0.16 0.03 83 1011.7
20260506025529 49 0 0.0 0.0 0.00 0.61 0.03 83 1011.7
20260506025026 49 0 0.0 0.0 0.00 0.61 0.03 83 1011.7
20260506024539 49 0 0.0 0.0 0.00 0.61 0.03 83 1011.6
20260506024026 49 0 0.0 0.0 0.00 0.61 0.03 82 1011.4
20260506023554 49 0 0.0 0.0 0.00 0.61 0.03 82 1011.3
20260506023049 49 0 0.0 0.0 0.00 0.61 0.03 81 1011.2
20260506022526 49 0 0.0 0.0 0.00 0.61 0.03 81 1011.2
20260506022027 49 0 0.0 0.0 0.00 0.61 0.03 78 1011.0
20260506021542 49 0 0.0 0.0 0.00 0.61 0.03 77 1010.8